Location: Unspecified
(0.0000°N, 0.0000°E)
Time: 10:43:12
(UTC+02:00)

Ariane H10 - Visible Passes

Search period start: 25 May 2017 00:00
Search period end: 04 June 2017 00:00
Orbit: 500 x 34760 km, 6.9° (Epoch: 24 May)

Date Brightness Start Highest point End Pass type
(mag) Time Alt. Az. Time Alt. Az. Time Alt. Az.
25 May 7.4 15:56:08 10° W 17:44:38 57° WSW 01:15:37 53° WNW visible
26 May 7.5 12:11:02 10° W 20:58:28 88° SSE 21:49:58 21° E visible
28 May 7.3 15:56:25 10° W 17:44:33 55° WSW 01:15:42 52° WNW visible
29 May 7.6 12:10:41 10° W 21:03:45 89° SSE 21:50:03 20° E visible
31 May 7.3 15:56:49 10° W 17:44:27 53° WSW 01:15:46 50° WNW visible
01 Jun 7.6 12:10:23 10° W 21:08:07 90° SSE 21:50:06 19° E visible
